OBJECT B, 61239

Orbit data source: Space-Track

You're viewing an Uncataloged Satellite

Recently launched and/or uncataloged satellites may have evolving metadata. Metadata may include but not limited to: Owner, Maufacturer, Bus, Motor, and Mission.

OBJECT B, 61239 is a Chinese satellite in SSO that was launched on Tue, 24 Sep 2024 UTC via a LIJIAN-1 launch vehicle from the Jiuquan Satellite Launch Center, China (JSC). Unknown objects in Earth's orbit typically refer to objects detected orbiting the Earth but have not yet been identified or cataloged. These objects could be anything from previously untracked satellites, spent rocket stages, debris from satellite collisions, or even natural meteoroids temporarily captured by Earth's gravity.

Loading next visibility...
OBJECT B details
Identifier
61239, 2024-174B
Orbit
SSO
Last TLE update9 hours ago
Origin
Flag of CNZHWK/JIG (CN / PRC)
ManufacturerZHWK/HITSAT
MissionOperational spacecraft
Bus & MotorZK1, Unknown motor
Mass~250 kg wet, ~250 kg dry
Launch date (UTC)
2024-09-24 (3 months ago)
Launch vehicle
LIJIAN-1
Launch site
Jiuquan Satellite Launch Center, China (JSC)
Object typeUnknown
Shape & HBRUnknown
Radar Cross SectionMedium (>0.1 m² and <1 m²)

Expand to show TLE details & history

TLE from 9 hours ago
0 OBJECT B
1 61239U 24174B   24356.15907956  .00010803  00000-0  53659-3 0  9994
2 61239  97.4528   0.0032 0014426 348.9601  11.1314 15.17758849 13214
Epoch: 2024-12-21T03:49Z
Definitive object data (Epoch: 2024-12-21T03:49:04.473Z)
Latitude-0.00006°
Longitude-147.47967°
Altitude505.946 km
Speed7.617 km/s
True Right ascension00h 00m 00s
True Declination0° 00' 00"
Sunlit
Object was in daylight at TLE epoch
Visualization TLE readout
Latitude-48.38718°
Longitude24.46388°
Altitude536.203 km
Speed7.59 km/s
Apparent Right ascension03h 02m 55s
Apparent Declination-87° 01' 07"
Sunlit
Object is in daylight
Visualization observer readout
Local Sidereal Time11:45:55
Azimuth183.031° SSW
Elevation-41.823°
Doppler factor1
Orbital elements
Apogee altitude519.523 km
Perigee altitude499.65 km
Semi-major axis6,887.723 km
Eccentricity0.0014426
Inclination97.4528°
RAAN0.0032°
Arg. of periapsis348.9601°
True anomaly11.16337°
Mean anomaly11.1314°
Eccentric anomaly11.14738°
Mean motion3.7969 °/min
BSTAR0.00053659
Orbital period94.81 mins
Loading maneuver chart data...
Loading historical data...
Loading historical data...
Loading historical data...
Loading historical data...
Loading historical data...
Loading historical data...
Loading historical data...

OBJECT B Visibility forecast

Observer location: undefined°, undefined

Span
Click to sort rows by Start time (UTC) header in descending order
Start Az.
Max El. time (UTC)
Max El. Az.
Max El.
End time (UTC)
End Az.
6 mins2024-12-21 13:52:04.652Z350.994° N2024-12-21 13:55:04.652Z287.818° WNW30.119°2024-12-21 13:58:04.652Z223.997° SW
5 mins2024-12-22 00:32:04.652Z165.911° S2024-12-22 00:34:04.652Z355.632° N44.296°2024-12-22 00:37:04.652Z348.511° N
|